SCP
0 0 -0 0 -0 -0 -0 0 0 0 0 0 0 0 0 0 0 0 0 0 -0 -0 -0 -0 -0 -0 -0 -0 -0 -0 -0 -0 0 -0 -0 -0 -0 -0 -0 -0 -0 -0 -0 -0 -0 -0 -0 -0 -0
0 0 0 -0 -0 -0 -0 0 0 0 0 0 0 0 0 0 0 0 0 -0 -0 -0 -0 -0 -0 -0 0 0 0 -0 -0 -0 -0 -0 -0 -0 -0 -0 -0 -0 -0 -0 -0 -0 -0 -0 -0 -0 -0
0 0 0 -0 -0 -0 0 0 0 0 0 0 0 0 0 0 0 0 0 -0 0 0 -0 -0 0 -0 -0 -0 -0 -0 -0 -0 -0 -0 -0 -0 -0 -0 -0 -0 -0 -0 -0 -0 -0 -0 -0 -0 -0
0 0 0 -0 -0 0 0 0 0 0 0 0 0 0 0 0 0 0 0 -0 0 0 -0 0 0 0 0 0 0 -0 -0 -0 -0 -0 -0 -0 -0 -0 -0 -0 -0 -0 -0 -0 -0 -0 -0 -0 -0
0 0 0 -0 0 0 0 0 0 0 0 0 0 0 0 0 0 0 0 0 0 0 0 0 0 0 0 0 0 -0 0 -0 -0 -0 -0 -0 -0 -0 -0 -0 -0 -0 -0 -0 -0 -0 -0 -0 -0
0 0 -0 -0 0 0 -0 0 0 0 0 0 0 0 0 -0 0 0 0 0 0 0 0 0 0 0 0 0 0 -0 -0 -0 -0 -0 -0 -0 -0 -0 -0 -0 -0 -0 -0 -0 -0 -0 -0 -0 -0
0 0 -0 -0 0 0 0 0 0 0 0 0 -0 0 0 -0 -0 0 -0 0 0 0 0 0 0 0 0 0 -0 -0 -0 -0 -0 -0 -0 -0 -0 -0 -0 -0 -0 -0 -0 -0 -0 -0 -0 -0 -0
0 0 0 0 0 0 0 0 -0 -0 0 0 0 0 0 -0 -0 -0 -0 -0 -0 0 -0 -0 0 0 0 0 -0 -0 -0 -0 -0 -0 -0 -0 -0 -0 -0 -0 -0 -0 -0 -0 -0 -0 -0 -0 -0
0 0 0 0 0 0 0 0 0 0 -0 0 0 0 -0 -0 -0 -0 -0 -0 -0 -0 -0 -0 -0 -0 -0 -0 -0 -0 -0 -0 -0 -0 -0 -0 -0 -0 -0 0 0 -0 -0 -0 -0 -0 0 0 0
0 0 0 0 0 0 -0 0 -0 0 0 0 0 -0 -0 -0 -0 -0 -0 -0 -0 -0 -0 -0 -0 -0 -0 -0 -0 -0 -0 -0 -0 -0 -0 -0 -0 0 0 0 0 0 0 0 0 0 0 0 0
0 0 0 0 0 0 0 0 0 -0 0 -0 -0 -0 -0 -0 -0 -0 -0 -0 -0 -0 -0 -0 -0 -0 -0 -0 -0 -0 -0 -0 -0 -0 -0 0 0 0 0 0 0 0 0 0 0 0 0 0 0
0 0 0 0 0 0 0 0 0 0 -0 0 -0 -0 -0 -0 -0 -0 -0 -0 -0 -0 -0 -0 -0 -0 -0 -0 -0 -0 -0 -0 0 0 0 0 0 0 0 0 0 0 0 0 0 0 0 0 0
0 0 0 0 0 0 0 0 0 0 -0 0 0 -0 -0 -0 -0 -0 -0 -0 -0 -0 -0 -0 -0 -0 -0 -0 -0 -0 -0 -0 -0 0 0 0 0 0 0 0 0 0 0 0 0 0 0 0 0
0 0 0 0 0 0 0 0 0 0 0 0 0 -0 -0 -0 -0 -0 -0 -0 -0 -0 -0 -0 -0 -0 -0 -0 -0 -0 -0 -0 -0 0 0 0 0 0 0 0 0 0 0 0 0 0 0 0 0
0 0 0 0 0 0 0 0 0 0 0 0 0 0 0 -0 0 -0 -0 -0 -0 -0 -0 -0 -0 -0 -0 -0 -0 -0 -0 -0 -0 0 0 0 0 0 0 0 0 0 0 0 0 0 0 0 0
0 0 0 0 0 0 0 0 0 0 0 0 0 0 0 0 0 0 0 0 0 0 -0 -0 -0 -0 -0 -0 -0 0 0 0 0 0 0 0 0 0 0 0 0 0 0 0 0 0 0 0 0
0 0 0 0 0 0 0 0 0 0 0 0 0 0 0 0 0 0 0 0 0 0 0 0 0 0 -0 0 0 0 0 0 0 0 0 0 0 0 0 0 0 0 0 0 0 0 0 0 0
0 0 0 0 0 0 0 0 0 0 0 0 0 0 0 0 0 0 0 0 0 0 0 0 0 0 0 0 0 0 0 0 0 0 0 0 0 0 0 0 0 0 0 0 0 0 0 0 0
0 0 0 0 0 0 0 0 0 0 0 0 0 0 0 0 0 0 0 0 0 0 0 0 0 0 0 0 0 0 0 0 0 0 0 0 0 0 0 0 0 0 0 0 0 0 0 0 0
0 0 0 0 0 0 0 0 0 0 0 0 0 0 0 0 0 0 0 0 0 0 0 0 0 0 0 0 0 0 0 0 0 0 0 0 0 0 0 0 0 0 0 0 0 0 0 0 0
0 0 0 0 0 0 0 0 0 0 0 0 0 0 0 0 0 0 0 0 0 0 0 0 0 0 0 0 0 0 0 0 0 0 0 0 0 0 0 0 0 0 0 0 0 0 0 0 0
0 0 0 0 0 0 0 0 0 0 0 0 0 0 0 0 0 0 0 0 0 0 0 0 0 0 0 0 0 0 0 0 0 0 0 0 0 0 0 0 0 0 0 0 0 0 0 0 0
0 0 0 0 0 0 0 0 -0 0 0 0 0 0 0 0 0 0 0 0 0 0 0 0 0 0 0 0 0 0 0 0 0 0 0 0 0 0 0 0 0 0 0 0 0 0 0 0 0
0 0 0 0 0 0 0 0 -0 -0 0 0 0 0 0 0 0 0 0 0 0 0 0 0 0 0 0 0 0 0 0 0 0 0 0 0 0 0 0 0 0 0 0 0 0 0 0 0 0
0 0 0 0 0 0 0 0 0 0 0 0 0 0 0 0 0 0 0 0 0 0 0 0 0 0 0 0 0 0 0 0 0 0 0 0 0 0 0 0 0 0 0 0 0 0 0 0 0
0 0 0 0 0 0 0 0 0 0 0 0 0 0 0 0 0 0 0 0 0 0 0 0 0 0 0 0 0 0 0 0 0 0 0 0 0 0 0 0 0 0 0 0 0 0 0 0 0
0 0 0 0 0 0 0 0 0 0 0 0 0 0 0 0 0 0 0 0 0 0 0 0 0 0 0 0 0 0 0 0 0 0 0 0 0 0 0 0 0 0 0 0 0 0 0 0 0
0 0 0 0 0 0 0 0 0 0 0 0 0 0 0 0 0 0 0 0 0 0 0 0 0 0 0 0 0 0 0 0 0 0 0 0 0 0 0 0 0 0 0 0 0 0 0 0 0
0 0 0 0 0 0 0 0 0 0 0 0 0 0 0 0 0 0 0 0 0 0 0 0 0 0 0 0 0 0 0 0 0 0 0 0 0 0 0 0 0 0 0 0 0 0 0 0 0
0 0 0 0 0 0 0 0 0 0 0 0 0 0 0 0 0 0 -0 -0 -0 -0 -0 0 0 0 0 0 0 0 0 0 0 0 0 0 0 0 0 0 0 0 0 0 0 0 0 0 0
Wind_Speed_500mb
14 14 11 8 7 10 1 7 2 5 6 5 10 8 13 9 6 6 30 29 49 47 31 34 29 22 18 16 18 21 23 24 23 27 34 25 19 10 11 15 16 20 27 31 32 30 32 32 32
16 9 5 5 9 6 8 6 13 9 16 34 22 17 7 4 7 20 41 39 48 44 41 37 32 25 21 21 21 23 23 25 27 30 31 22 18 10 9 15 17 21 25 31 31 30 28 26 29
11 6 3 8 7 8 9 8 9 9 31 7 8 11 8 10 13 44 36 52 51 46 40 39 31 23 22 22 21 23 23 24 26 26 28 20 14 12 12 16 17 20 27 26 25 28 26 24 27
11 4 9 8 7 6 7 12 10 13 6 6 14 11 8 5 24 37 53 53 49 44 40 35 31 26 22 21 21 22 22 22 23 22 21 16 11 11 11 16 18 21 26 24 24 29 25 28 30
10 6 7 5 6 5 2 17 21 6 9 14 11 7 6 23 20 29 50 50 45 41 37 33 31 28 22 19 18 20 20 19 20 18 15 12 10 11 12 14 17 21 26 19 28 28 26 23 26
4 6 8 4 5 9 5 20 11 7 8 17 12 16 10 26 25 35 43 45 41 38 37 34 32 27 23 20 16 16 17 17 16 15 13 11 11 11 11 11 13 15 20 17 22 24 22 23 22
11 8 9 7 5 1 9 20 8 14 13 7 27 9 8 37 28 34 39 40 40 39 37 37 34 31 28 22 17 15 18 17 14 13 12 12 11 10 11 11 12 12 12 13 15 13 17 17 18
5 9 8 4 10 7 11 20 13 15 10 12 18 10 9 38 39 33 40 37 41 40 39 37 36 34 30 25 21 17 16 15 14 12 11 11 10 11 11 11 12 12 12 14 14 14 12 10 8
7 8 4 8 12 7 20 7 13 7 14 14 15 8 6 41 43 47 45 43 42 42 41 41 39 37 35 32 28 23 20 19 17 14 11 8 8 8 9 11 10 10 11 13 9 7 7 7 9
8 8 15 6 8 9 14 4 21 10 11 10 15 13 14 44 53 57 57 55 54 51 46 44 41 42 40 39 34 29 27 26 24 20 16 12 12 10 9 9 9 9 10 11 10 8 8 8 9
7 9 11 5 6 8 14 3 12 16 6 22 28 26 29 47 55 60 57 56 53 50 49 48 44 44 46 44 41 38 34 30 27 25 22 19 17 16 14 12 12 12 12 9 8 8 7 8 9
7 3 9 11 6 10 11 7 6 21 14 9 27 27 35 48 56 59 60 58 55 55 49 44 43 45 50 48 46 44 41 38 36 33 31 28 25 22 18 18 16 14 11 10 9 6 5 7 12
6 7 6 8 6 5 8 8 9 22 29 10 11 31 37 45 49 52 54 56 57 58 59 52 46 41 51 53 53 51 49 46 41 39 37 35 31 27 21 25 21 18 17 12 8 5 4 5 9
10 11 8 7 5 4 6 5 3 2 18 30 22 23 35 45 47 51 57 59 63 60 61 58 56 50 44 51 56 55 52 48 46 46 44 40 37 34 26 28 27 23 23 20 18 15 12 13 13
11 8 6 8 7 4 6 7 14 16 14 13 35 28 35 42 52 57 48 53 57 61 61 64 62 59 56 49 49 52 49 48 50 49 48 47 45 42 34 31 32 31 30 28 25 23 24 28 24
8 9 6 3 9 3 7 13 9 2 6 15 24 30 37 41 48 56 59 57 56 63 67 64 68 69 64 59 56 55 54 53 52 49 53 53 52 46 45 45 39 40 40 39 32 29 33 31 31
11 6 6 10 13 4 4 11 9 9 9 18 12 24 32 39 46 53 58 63 61 61 66 68 69 74 72 67 65 63 61 61 61 61 57 58 59 52 56 55 50 49 53 51 48 43 42 44 41
11 6 4 6 6 4 4 16 17 28 27 29 29 31 40 45 49 45 48 55 62 61 64 70 71 73 75 73 70 72 71 71 71 71 72 65 64 63 63 64 62 59 62 63 60 57 55 52 50
13 7 4 4 1 3 9 12 22 47 40 42 48 50 52 56 53 52 51 53 57 65 66 67 73 74 79 82 82 83 83 80 80 81 79 76 70 69 67 66 70 70 71 68 72 67 66 62 62
6 6 3 5 3 4 8 19 19 31 42 52 54 54 45 41 38 40 46 48 52 50 58 66 70 69 73 80 81 86 83 85 81 79 81 81 77 76 74 73 75 75 75 77 78 83 78 74 73
6 10 7 8 3 7 10 16 13 9 16 25 27 31 37 39 32 17 13 17 32 46 50 55 62 72 73 74 82 90 97 95 93 92 88 86 84 83 83 81 83 82 79 85 79 79 92 92 82
9 10 9 7 6 4 5 10 12 10 20 15 37 18 18 23 20 19 18 15 9 18 31 44 53 65 77 80 84 85 86 94 88 91 90 89 87 86 84 83 86 84 83 80 82 86 83 99 85
10 8 6 6 8 6 6 4 14 9 12 9 24 29 28 30 28 23 18 15 16 15 13 22 32 41 57 75 85 88 87 87 92 91 91 89 90 87 86 84 86 91 91 88 83 85 89 102 97
16 12 14 9 6 2 9 9 11 6 2 8 14 34 39 41 40 39 34 26 21 21 23 23 23 24 29 43 63 77 84 86 88 87 87 86 83 80 83 86 91 93 93 95 97 97 95 93 99
9 12 4 6 5 9 1 6 16 3 6 4 12 35 38 41 48 54 60 60 59 59 56 44 33 29 26 26 33 47 62 73 79 82 84 82 81 80 77 76 83 89 94 95 97 101 100 101 105
13 14 11 14 7 6 2 9 9 7 17 25 27 32 39 38 35 40 48 49 51 50 51 52 53 47 33 29 30 35 43 53 63 68 71 74 75 74 71 69 71 78 85 90 96 99 101 103 108
11 8 9 13 6 7 7 9 11 10 16 24 37 45 47 51 44 41 38 45 45 43 44 46 47 49 48 42 33 32 38 46 52 55 56 59 59 58 58 61 63 69 75 81 87 93 99 103 108
7 15 7 5 5 7 6 5 10 14 10 11 27 35 36 39 40 41 44 41 37 37 36 35 37 40 40 41 41 40 35 34 34 35 39 43 46 48 51 54 59 64 70 75 79 86 91 96 104
5 5 7 9 9 10 3 10 8 22 15 17 19 29 27 32 35 34 33 33 38 37 39 38 35 33 29 30 34 36 35 32 27 34 41 44 46 48 52 56 61 65 68 72 77 82 84 90 91
4 13 13 10 9 4 6 10 15 19 25 19 18 31 25 21 17 22 29 34 37 40 43 43 39 34 34 37 38 37 39 42 45 51 53 52 56 59 61 64 70 75 76 75 77 78 80 83 86
Wind_Direction_500mb
248 257 293 289 53 65 218 243 231 141 149 176 149 157 153 91 150 200 142 155 155 160 160 147 138 135 128 121 130 126 125 125 122 119 121 125 138 129 73 69 90 96 104 100 95 96 98 89 86
225 245 279 92 92 85 263 263 175 192 134 120 101 103 79 107 137 148 147 155 162 161 154 148 149 146 143 133 130 125 122 119 119 126 130 141 146 130 97 89 105 105 109 105 102 100 103 92 86
210 220 182 96 113 169 198 209 204 147 151 153 104 86 114 147 173 159 153 152 157 166 164 157 155 151 143 137 136 128 122 121 122 131 139 146 131 116 99 106 119 119 116 111 108 106 102 94 93
189 148 68 88 185 231 227 181 188 139 166 171 139 77 108 139 155 156 155 158 159 162 163 167 168 166 148 148 146 137 129 124 119 127 143 146 136 128 116 123 128 130 125 120 115 109 105 94 99
159 103 59 70 288 287 249 161 166 144 155 146 140 162 106 137 151 160 163 165 168 173 174 174 177 175 163 157 149 143 132 123 116 116 123 135 129 125 124 129 135 138 129 133 123 118 119 114 114
116 95 64 154 283 327 66 159 173 158 169 149 129 130 146 166 160 163 169 170 173 177 177 179 181 179 180 174 159 149 147 136 125 116 115 112 114 121 126 129 133 142 147 143 138 143 140 132 129
129 87 177 167 187 310 198 183 199 175 151 207 148 125 189 183 174 170 176 176 179 186 187 185 187 187 191 187 176 169 161 155 142 133 117 107 112 127 130 132 134 145 150 161 157 155 151 137 134
132 92 131 199 180 241 169 164 195 167 186 156 171 176 195 185 181 177 178 182 187 194 198 195 194 197 197 197 197 190 174 170 165 152 137 124 125 128 126 133 138 152 162 170 173 167 161 158 153
131 66 158 197 150 226 162 140 172 200 162 178 203 239 233 178 180 182 183 184 188 196 202 202 204 205 205 206 205 199 194 191 188 183 174 158 156 147 146 141 142 155 164 176 180 183 181 184 162
100 114 205 205 185 185 168 176 158 169 171 208 205 221 183 181 183 188 192 193 195 199 200 202 207 211 210 211 211 210 209 205 204 205 201 194 195 191 182 166 166 168 173 191 188 190 193 195 206
140 172 196 168 109 163 149 198 182 156 232 215 215 206 186 185 192 197 202 204 204 203 209 210 212 214 215 215 215 216 219 217 215 217 217 219 216 208 204 198 194 191 196 193 179 180 196 217 222
113 146 175 155 140 137 161 172 221 210 218 255 236 227 203 195 199 205 210 212 211 212 216 216 215 219 220 221 223 225 227 225 222 223 225 226 224 216 218 209 207 208 207 196 188 190 210 225 225
120 171 130 150 171 164 180 205 229 253 237 230 224 213 216 214 214 215 218 218 218 219 222 225 223 223 225 224 226 229 230 229 231 231 234 234 229 227 231 215 214 215 207 212 210 206 217 252 250
158 144 142 179 188 182 168 252 183 350 236 230 232 210 224 229 227 220 218 222 223 226 228 229 231 234 233 232 231 232 235 236 236 239 240 240 235 234 238 229 224 222 211 210 237 247 270 269 262
120 105 23 208 192 183 154 268 239 256 247 230 233 233 235 238 235 234 235 230 229 230 231 232 236 238 240 242 239 236 239 240 239 237 241 242 240 236 239 241 242 236 226 225 230 255 266 258 243
71 50 113 279 159 176 135 263 263 290 198 252 241 239 236 235 243 245 241 242 239 235 235 235 235 238 242 244 244 240 240 242 245 245 247 246 244 239 240 238 244 244 240 239 255 257 262 266 261
14 180 188 307 190 131 123 254 255 187 345 311 268 249 245 246 245 246 247 246 245 243 240 239 237 238 241 244 246 246 247 247 247 249 250 250 251 246 238 241 243 245 244 243 242 243 252 254 251
189 193 231 242 219 130 155 263 287 271 285 283 282 264 256 254 254 252 254 252 248 247 246 242 242 242 242 246 246 246 246 249 248 251 251 252 254 253 244 242 243 246 246 246 248 247 248 247 244
135 131 152 256 132 162 247 267 275 287 291 280 279 274 270 266 269 262 258 259 254 248 245 244 242 243 241 241 241 242 242 244 246 248 251 252 255 256 252 252 249 248 249 253 250 247 246 243 240
102 101 250 280 38 143 348 277 265 270 270 273 279 283 283 290 287 275 263 256 255 254 249 246 245 243 244 244 245 245 248 249 250 252 253 253 252 254 254 254 256 254 253 257 252 250 247 241 242
172 160 198 209 42 54 343 305 332 299 276 287 279 293 303 295 299 315 312 284 258 258 258 255 253 249 248 247 246 246 245 249 250 250 252 253 253 253 255 256 256 258 256 254 257 260 249 246 249
162 198 152 148 88 210 20 284 310 313 298 327 336 340 31 47 53 51 52 42 337 283 264 260 258 255 252 249 248 250 251 252 258 257 258 257 256 256 257 258 257 259 259 257 261 258 258 256 250
197 112 122 92 98 75 319 87 271 339 321 356 37 40 47 50 46 46 32 5 347 332 312 273 266 263 259 254 252 252 253 257 258 260 261 259 258 258 256 255 257 259 260 258 260 260 260 257 254
147 82 50 54 86 333 240 144 289 234 159 23 23 51 55 57 54 50 41 27 11 357 344 332 319 299 277 263 257 258 258 258 261 265 265 266 266 263 258 259 259 260 262 263 264 265 263 263 261
82 81 357 346 3 220 61 99 243 294 7 33 66 53 56 59 62 62 58 55 53 49 43 32 10 345 327 306 283 270 266 264 265 267 269 271 271 270 269 264 259 260 263 265 267 267 266 267 261
184 156 158 196 195 248 85 227 245 114 105 102 58 47 49 52 59 62 55 48 43 37 36 35 34 26 2 325 300 282 272 267 267 268 271 272 272 273 273 270 265 261 260 261 261 264 265 267 264
190 179 156 103 28 69 216 287 327 89 90 68 56 59 54 50 45 37 31 25 25 24 25 21 18 16 11 7 344 309 286 277 274 273 272 271 269 269 270 268 265 263 261 260 261 261 261 262 263
158 159 75 12 161 257 274 232 216 106 111 61 45 40 32 24 23 18 15 12 9 7 5 5 1 360 0 358 355 349 332 310 294 287 284 281 279 277 275 273 270 266 264 262 261 261 262 262 263
133 167 72 129 156 176 181 252 194 149 141 106 67 34 22 20 17 9 10 2 349 347 348 350 344 343 340 338 339 339 334 323 311 308 310 304 295 290 286 281 278 273 270 267 265 264 265 265 265
188 179 155 151 218 239 149 261 141 147 143 88 46 26 26 16 20 5 354 346 342 342 345 352 349 344 335 327 322 318 315 311 301 300 303 300 297 293 290 286 282 279 276 272 269 268 267 267 269
Wind_Speed_850mb
14 14 11 8 7 10 1 7 2 5 6 5 10 8 13 9 6 6 30 29 49 47 31 34 29 22 18 16 18 21 23 24 23 27 34 25 19 10 11 15 16 20 27 31 32 30 32 32 32
16 9 5 5 9 6 8 6 13 9 16 34 22 17 7 4 7 20 41 39 48 44 41 37 32 25 21 21 21 23 23 25 27 30 31 22 18 10 9 15 17 21 25 31 31 30 28 26 29
11 6 3 8 7 8 9 8 9 9 31 7 8 11 8 10 13 44 36 52 51 46 40 39 31 23 22 22 21 23 23 24 26 26 28 20 14 12 12 16 17 20 27 26 25 28 26 24 27
11 4 9 8 7 6 7 12 10 13 6 6 14 11 8 5 24 37 53 53 49 44 40 35 31 26 22 21 21 22 22 22 23 22 21 16 11 11 11 16 18 21 26 24 24 29 25 28 30
10 6 7 5 6 5 2 17 21 6 9 14 11 7 6 23 20 29 50 50 45 41 37 33 31 28 22 19 18 20 20 19 20 18 15 12 10 11 12 14 17 21 26 19 28 28 26 23 26
4 6 8 4 5 9 5 20 11 7 8 17 12 16 10 26 25 35 43 45 41 38 37 34 32 27 23 20 16 16 17 17 16 15 13 11 11 11 11 11 13 15 20 17 22 24 22 23 22
11 8 9 7 5 1 9 20 8 14 13 7 27 9 8 37 28 34 39 40 40 39 37 37 34 31 28 22 17 15 18 17 14 13 12 12 11 10 11 11 12 12 12 13 15 13 17 17 18
5 9 8 4 10 7 11 20 13 15 10 12 18 10 9 38 39 33 40 37 41 40 39 37 36 34 30 25 21 17 16 15 14 12 11 11 10 11 11 11 12 12 12 14 14 14 12 10 8
7 8 4 8 12 7 20 7 13 7 14 14 15 8 6 41 43 47 45 43 42 42 41 41 39 37 35 32 28 23 20 19 17 14 11 8 8 8 9 11 10 10 11 13 9 7 7 7 9
8 8 15 6 8 9 14 4 21 10 11 10 15 13 14 44 53 57 57 55 54 51 46 44 41 42 40 39 34 29 27 26 24 20 16 12 12 10 9 9 9 9 10 11 10 8 8 8 9
7 9 11 5 6 8 14 3 12 16 6 22 28 26 29 47 55 60 57 56 53 50 49 48 44 44 46 44 41 38 34 30 27 25 22 19 17 16 14 12 12 12 12 9 8 8 7 8 9
7 3 9 11 6 10 11 7 6 21 14 9 27 27 35 48 56 59 60 58 55 55 49 44 43 45 50 48 46 44 41 38 36 33 31 28 25 22 18 18 16 14 11 10 9 6 5 7 12
6 7 6 8 6 5 8 8 9 22 29 10 11 31 37 45 49 52 54 56 57 58 59 52 46 41 51 53 53 51 49 46 41 39 37 35 31 27 21 25 21 18 17 12 8 5 4 5 9
10 11 8 7 5 4 6 5 3 2 18 30 22 23 35 45 47 51 57 59 63 60 61 58 56 50 44 51 56 55 52 48 46 46 44 40 37 34 26 28 27 23 23 20 18 15 12 13 13
11 8 6 8 7 4 6 7 14 16 14 13 35 28 35 42 52 57 48 53 57 61 61 64 62 59 56 49 49 52 49 48 50 49 48 47 45 42 34 31 32 31 30 28 25 23 24 28 24
8 9 6 3 9 3 7 13 9 2 6 15 24 30 37 41 48 56 59 57 56 63 67 64 68 69 64 59 56 55 54 53 52 49 53 53 52 46 45 45 39 40 40 39 32 29 33 31 31
11 6 6 10 13 4 4 11 9 9 9 18 12 24 32 39 46 53 58 63 61 61 66 68 69 74 72 67 65 63 61 61 61 61 57 58 59 52 56 55 50 49 53 51 48 43 42 44 41
11 6 4 6 6 4 4 16 17 28 27 29 29 31 40 45 49 45 48 55 62 61 64 70 71 73 75 73 70 72 71 71 71 71 72 65 64 63 63 64 62 59 62 63 60 57 55 52 50
13 7 4 4 1 3 9 12 22 47 40 42 48 50 52 56 53 52 51 53 57 65 66 67 73 74 79 82 82 83 83 80 80 81 79 76 70 69 67 66 70 70 71 68 72 67 66 62 62
6 6 3 5 3 4 8 19 19 31 42 52 54 54 45 41 38 40 46 48 52 50 58 66 70 69 73 80 81 86 83 85 81 79 81 81 77 76 74 73 75 75 75 77 78 83 78 74 73
6 10 7 8 3 7 10 16 13 9 16 25 27 31 37 39 32 17 13 17 32 46 50 55 62 72 73 74 82 90 97 95 93 92 88 86 84 83 83 81 83 82 79 85 79 79 92 92 82
9 10 9 7 6 4 5 10 12 10 20 15 37 18 18 23 20 19 18 15 9 18 31 44 53 65 77 80 84 85 86 94 88 91 90 89 87 86 84 83 86 84 83 80 82 86 83 99 85
10 8 6 6 8 6 6 4 14 9 12 9 24 29 28 30 28 23 18 15 16 15 13 22 32 41 57 75 85 88 87 87 92 91 91 89 90 87 86 84 86 91 91 88 83 85 89 102 97
16 12 14 9 6 2 9 9 11 6 2 8 14 34 39 41 40 39 34 26 21 21 23 23 23 24 29 43 63 77 84 86 88 87 87 86 83 80 83 86 91 93 93 95 97 97 95 93 99
9 12 4 6 5 9 1 6 16 3 6 4 12 35 38 41 48 54 60 60 59 59 56 44 33 29 26 26 33 47 62 73 79 82 84 82 81 80 77 76 83 89 94 95 97 101 100 101 105
13 14 11 14 7 6 2 9 9 7 17 25 27 32 39 38 35 40 48 49 51 50 51 52 53 47 33 29 30 35 43 53 63 68 71 74 75 74 71 69 71 78 85 90 96 99 101 103 108
11 8 9 13 6 7 7 9 11 10 16 24 37 45 47 51 44 41 38 45 45 43 44 46 47 49 48 42 33 32 38 46 52 55 56 59 59 58 58 61 63 69 75 81 87 93 99 103 108
7 15 7 5 5 7 6 5 10 14 10 11 27 35 36 39 40 41 44 41 37 37 36 35 37 40 40 41 41 40 35 34 34 35 39 43 46 48 51 54 59 64 70 75 79 86 91 96 104
5 5 7 9 9 10 3 10 8 22 15 17 19 29 27 32 35 34 33 33 38 37 39 38 35 33 29 30 34 36 35 32 27 34 41 44 46 48 52 56 61 65 68 72 77 82 84 90 91
4 13 13 10 9 4 6 10 15 19 25 19 18 31 25 21 17 22 29 34 37 40 43 43 39 34 34 37 38 37 39 42 45 51 53 52 56 59 61 64 70 75 76 75 77 78 80 83 86
Wind_Direction_850mb
248 257 293 289 53 65 218 243 231 141 149 176 149 157 153 91 150 200 142 155 155 160 160 147 138 135 128 121 130 126 125 125 122 119 121 125 138 129 73 69 90 96 104 100 95 96 98 89 86
225 245 279 92 92 85 263 263 175 192 134 120 101 103 79 107 137 148 147 155 162 161 154 148 149 146 143 133 130 125 122 119 119 126 130 141 146 130 97 89 105 105 109 105 102 100 103 92 86
210 220 182 96 113 169 198 209 204 147 151 153 104 86 114 147 173 159 153 152 157 166 164 157 155 151 143 137 136 128 122 121 122 131 139 146 131 116 99 106 119 119 116 111 108 106 102 94 93
189 148 68 88 185 231 227 181 188 139 166 171 139 77 108 139 155 156 155 158 159 162 163 167 168 166 148 148 146 137 129 124 119 127 143 146 136 128 116 123 128 130 125 120 115 109 105 94 99
159 103 59 70 288 287 249 161 166 144 155 146 140 162 106 137 151 160 163 165 168 173 174 174 177 175 163 157 149 143 132 123 116 116 123 135 129 125 124 129 135 138 129 133 123 118 119 114 114
116 95 64 154 283 327 66 159 173 158 169 149 129 130 146 166 160 163 169 170 173 177 177 179 181 179 180 174 159 149 147 136 125 116 115 112 114 121 126 129 133 142 147 143 138 143 140 132 129
129 87 177 167 187 310 198 183 199 175 151 207 148 125 189 183 174 170 176 176 179 186 187 185 187 187 191 187 176 169 161 155 142 133 117 107 112 127 130 132 134 145 150 161 157 155 151 137 134
132 92 131 199 180 241 169 164 195 167 186 156 171 176 195 185 181 177 178 182 187 194 198 195 194 197 197 197 197 190 174 170 165 152 137 124 125 128 126 133 138 152 162 170 173 167 161 158 153
131 66 158 197 150 226 162 140 172 200 162 178 203 239 233 178 180 182 183 184 188 196 202 202 204 205 205 206 205 199 194 191 188 183 174 158 156 147 146 141 142 155 164 176 180 183 181 184 162
100 114 205 205 185 185 168 176 158 169 171 208 205 221 183 181 183 188 192 193 195 199 200 202 207 211 210 211 211 210 209 205 204 205 201 194 195 191 182 166 166 168 173 191 188 190 193 195 206
140 172 196 168 109 163 149 198 182 156 232 215 215 206 186 185 192 197 202 204 204 203 209 210 212 214 215 215 215 216 219 217 215 217 217 219 216 208 204 198 194 191 196 193 179 180 196 217 222
113 146 175 155 140 137 161 172 221 210 218 255 236 227 203 195 199 205 210 212 211 212 216 216 215 219 220 221 223 225 227 225 222 223 225 226 224 216 218 209 207 208 207 196 188 190 210 225 225
120 171 130 150 171 164 180 205 229 253 237 230 224 213 216 214 214 215 218 218 218 219 222 225 223 223 225 224 226 229 230 229 231 231 234 234 229 227 231 215 214 215 207 212 210 206 217 252 250
158 144 142 179 188 182 168 252 183 350 236 230 232 210 224 229 227 220 218 222 223 226 228 229 231 234 233 232 231 232 235 236 236 239 240 240 235 234 238 229 224 222 211 210 237 247 270 269 262
120 105 23 208 192 183 154 268 239 256 247 230 233 233 235 238 235 234 235 230 229 230 231 232 236 238 240 242 239 236 239 240 239 237 241 242 240 236 239 241 242 236 226 225 230 255 266 258 243
71 50 113 279 159 176 135 263 263 290 198 252 241 239 236 235 243 245 241 242 239 235 235 235 235 238 242 244 244 240 240 242 245 245 247 246 244 239 240 238 244 244 240 239 255 257 262 266 261
14 180 188 307 190 131 123 254 255 187 345 311 268 249 245 246 245 246 247 246 245 243 240 239 237 238 241 244 246 246 247 247 247 249 250 250 251 246 238 241 243 245 244 243 242 243 252 254 251
189 193 231 242 219 130 155 263 287 271 285 283 282 264 256 254 254 252 254 252 248 247 246 242 242 242 242 246 246 246 246 249 248 251 251 252 254 253 244 242 243 246 246 246 248 247 248 247 244
135 131 152 256 132 162 247 267 275 287 291 280 279 274 270 266 269 262 258 259 254 248 245 244 242 243 241 241 241 242 242 244 246 248 251 252 255 256 252 252 249 248 249 253 250 247 246 243 240
102 101 250 280 38 143 348 277 265 270 270 273 279 283 283 290 287 275 263 256 255 254 249 246 245 243 244 244 245 245 248 249 250 252 253 253 252 254 254 254 256 254 253 257 252 250 247 241 242
172 160 198 209 42 54 343 305 332 299 276 287 279 293 303 295 299 315 312 284 258 258 258 255 253 249 248 247 246 246 245 249 250 250 252 253 253 253 255 256 256 258 256 254 257 260 249 246 249
162 198 152 148 88 210 20 284 310 313 298 327 336 340 31 47 53 51 52 42 337 283 264 260 258 255 252 249 248 250 251 252 258 257 258 257 256 256 257 258 257 259 259 257 261 258 258 256 250
197 112 122 92 98 75 319 87 271 339 321 356 37 40 47 50 46 46 32 5 347 332 312 273 266 263 259 254 252 252 253 257 258 260 261 259 258 258 256 255 257 259 260 258 260 260 260 257 254
147 82 50 54 86 333 240 144 289 234 159 23 23 51 55 57 54 50 41 27 11 357 344 332 319 299 277 263 257 258 258 258 261 265 265 266 266 263 258 259 259 260 262 263 264 265 263 263 261
82 81 357 346 3 220 61 99 243 294 7 33 66 53 56 59 62 62 58 55 53 49 43 32 10 345 327 306 283 270 266 264 265 267 269 271 271 270 269 264 259 260 263 265 267 267 266 267 261
184 156 158 196 195 248 85 227 245 114 105 102 58 47 49 52 59 62 55 48 43 37 36 35 34 26 2 325 300 282 272 267 267 268 271 272 272 273 273 270 265 261 260 261 261 264 265 267 264
190 179 156 103 28 69 216 287 327 89 90 68 56 59 54 50 45 37 31 25 25 24 25 21 18 16 11 7 344 309 286 277 274 273 272 271 269 269 270 268 265 263 261 260 261 261 261 262 263
158 159 75 12 161 257 274 232 216 106 111 61 45 40 32 24 23 18 15 12 9 7 5 5 1 360 0 358 355 349 332 310 294 287 284 281 279 277 275 273 270 266 264 262 261 261 262 262 263
133 167 72 129 156 176 181 252 194 149 141 106 67 34 22 20 17 9 10 2 349 347 348 350 344 343 340 338 339 339 334 323 311 308 310 304 295 290 286 281 278 273 270 267 265 264 265 265 265
188 179 155 151 218 239 149 261 141 147 143 88 46 26 26 16 20 5 354 346 342 342 345 352 349 344 335 327 322 318 315 311 301 300 303 300 297 293 290 286 282 279 276 272 269 268 267 267 269